Year,Month,Day,Hour,Minute,Value (Times are PST for insolation in W/m^2)
2008,01,29,00,00,0.00
2008,01,29,00,01,0.00
2008,01,29,00,02,0.00
2008,01,29,00,03,0.00
2008,01,29,00,04,0.00
2008,01,29,00,05,0.00
2008,01,29,00,06,0.00
2008,01,29,00,07,0.00
2008,01,29,00,08,0.00
2008,01,29,00,09,0.00
2008,01,29,00,10,0.00
2008,01,29,00,11,0.00
2008,01,29,00,12,0.00
2008,01,29,00,13,0.00
2008,01,29,00,14,0.00
2008,01,29,00,15,0.00
2008,01,29,00,16,0.00
2008,01,29,00,17,0.00
2008,01,29,00,18,0.00
2008,01,29,00,19,0.00
2008,01,29,00,20,0.00
2008,01,29,00,21,0.00
2008,01,29,00,22,0.00
2008,01,29,00,23,0.00
2008,01,29,00,24,0.00
2008,01,29,00,25,0.00
2008,01,29,00,26,0.00
2008,01,29,00,27,0.00
2008,01,29,00,28,0.00
2008,01,29,00,29,0.00
2008,01,29,00,30,0.00
2008,01,29,00,31,0.00
2008,01,29,00,32,0.00
2008,01,29,00,33,0.00
2008,01,29,00,34,0.00
2008,01,29,00,35,0.00
2008,01,29,00,36,0.00
2008,01,29,00,37,0.00
2008,01,29,00,38,0.00
2008,01,29,00,39,0.00
2008,01,29,00,40,0.00
2008,01,29,00,41,0.00
2008,01,29,00,42,0.00
2008,01,29,00,43,0.00
2008,01,29,00,44,0.00
2008,01,29,00,45,0.00
2008,01,29,00,46,0.00
2008,01,29,00,47,0.00
2008,01,29,00,48,0.00
2008,01,29,00,49,0.00
2008,01,29,00,50,0.00
2008,01,29,00,51,0.00
2008,01,29,00,52,0.00
2008,01,29,00,53,0.00
2008,01,29,00,54,0.00
2008,01,29,00,55,0.00
2008,01,29,00,56,0.00
2008,01,29,00,57,0.00
2008,01,29,00,58,0.00
2008,01,29,00,59,0.00
2008,01,29,01,00,0.00
2008,01,29,01,01,0.00
2008,01,29,01,02,0.00
2008,01,29,01,03,0.00
2008,01,29,01,04,0.00
2008,01,29,01,05,0.00
2008,01,29,01,06,0.00
2008,01,29,01,07,0.00
2008,01,29,01,08,0.00
2008,01,29,01,09,0.00
2008,01,29,01,10,0.00
2008,01,29,01,11,0.00
2008,01,29,01,12,0.00
2008,01,29,01,13,0.00
2008,01,29,01,14,0.00
2008,01,29,01,15,0.00
2008,01,29,01,16,0.00
2008,01,29,01,17,0.00
2008,01,29,01,18,0.00
2008,01,29,01,19,0.00
2008,01,29,01,20,0.00
2008,01,29,01,21,0.00
2008,01,29,01,22,0.00
2008,01,29,01,23,0.00
2008,01,29,01,24,0.00
2008,01,29,01,25,0.00
2008,01,29,01,26,0.00
2008,01,29,01,27,0.00
2008,01,29,01,28,0.00
2008,01,29,01,29,0.00
2008,01,29,01,30,0.00
2008,01,29,01,31,0.00
2008,01,29,01,32,0.00
2008,01,29,01,33,0.00
2008,01,29,01,34,0.00
2008,01,29,01,35,0.00
2008,01,29,01,36,0.00
2008,01,29,01,37,0.00
2008,01,29,01,38,0.00
2008,01,29,01,39,0.00
2008,01,29,01,40,0.00
2008,01,29,01,41,0.00
2008,01,29,01,42,0.00
2008,01,29,01,43,0.00
2008,01,29,01,44,0.00
2008,01,29,01,45,0.00
2008,01,29,01,46,0.00
2008,01,29,01,47,0.00
2008,01,29,01,48,0.00
2008,01,29,01,49,0.00
2008,01,29,01,50,0.00
2008,01,29,01,51,0.00
2008,01,29,01,52,0.00
2008,01,29,01,53,0.00
2008,01,29,01,54,0.00
2008,01,29,01,55,0.00
2008,01,29,01,56,0.00
2008,01,29,01,57,0.00
2008,01,29,01,58,0.00
2008,01,29,01,59,0.00
2008,01,29,02,00,0.00
2008,01,29,02,01,0.00
2008,01,29,02,02,0.00
2008,01,29,02,03,0.00
2008,01,29,02,04,0.00
2008,01,29,02,05,0.00
2008,01,29,02,06,0.00
2008,01,29,02,07,0.00
2008,01,29,02,08,0.00
2008,01,29,02,09,0.00
2008,01,29,02,10,0.00
2008,01,29,02,11,0.00
2008,01,29,02,12,0.00
2008,01,29,02,13,0.00
2008,01,29,02,14,0.00
2008,01,29,02,15,0.00
2008,01,29,02,16,0.00
2008,01,29,02,17,0.00
2008,01,29,02,18,0.00
2008,01,29,02,19,0.00
2008,01,29,02,20,0.00
2008,01,29,02,21,0.00
2008,01,29,02,22,0.00
2008,01,29,02,23,0.00
2008,01,29,02,24,0.00
2008,01,29,02,25,0.00
2008,01,29,02,26,0.00
2008,01,29,02,27,0.00
2008,01,29,02,28,0.00
2008,01,29,02,29,0.00
2008,01,29,02,30,0.00
2008,01,29,02,31,0.00
2008,01,29,02,32,0.00
2008,01,29,02,33,0.00
2008,01,29,02,34,0.00
2008,01,29,02,35,0.00
2008,01,29,02,36,0.00
2008,01,29,02,37,0.00
2008,01,29,02,38,0.00
2008,01,29,02,39,0.00
2008,01,29,02,40,0.00
2008,01,29,02,41,0.00
2008,01,29,02,42,0.00
2008,01,29,02,43,0.00
2008,01,29,02,44,0.00
2008,01,29,02,45,0.00
2008,01,29,02,46,0.00
2008,01,29,02,47,0.00
2008,01,29,02,48,0.00
2008,01,29,02,49,0.00
2008,01,29,02,50,0.00
2008,01,29,02,51,0.00
2008,01,29,02,52,0.00
2008,01,29,02,53,0.00
2008,01,29,02,54,0.00
2008,01,29,02,55,0.00
2008,01,29,02,56,0.00
2008,01,29,02,57,0.00
2008,01,29,02,58,0.00
2008,01,29,02,59,0.00
2008,01,29,03,00,0.00
2008,01,29,03,01,0.00
2008,01,29,03,02,0.00
2008,01,29,03,03,0.00
2008,01,29,03,04,0.00
2008,01,29,03,05,0.00
2008,01,29,03,06,0.00
2008,01,29,03,07,0.00
2008,01,29,03,08,0.00
2008,01,29,03,09,0.00
2008,01,29,03,10,0.00
2008,01,29,03,11,0.00
2008,01,29,03,12,0.00
2008,01,29,03,13,0.00
2008,01,29,03,14,0.00
2008,01,29,03,15,0.00
2008,01,29,03,16,0.00
2008,01,29,03,17,0.00
2008,01,29,03,18,0.00
2008,01,29,03,19,0.00
2008,01,29,03,20,0.00
2008,01,29,03,21,0.00
2008,01,29,03,22,0.00
2008,01,29,03,23,0.00
2008,01,29,03,24,0.00
2008,01,29,03,25,0.00
2008,01,29,03,26,0.00
2008,01,29,03,27,0.00
2008,01,29,03,28,0.00
2008,01,29,03,29,0.00
2008,01,29,03,30,0.00
2008,01,29,03,31,0.00
2008,01,29,03,32,0.00
2008,01,29,03,33,0.00
2008,01,29,03,34,0.00
2008,01,29,03,35,0.00
2008,01,29,03,36,0.00
2008,01,29,03,37,0.00
2008,01,29,03,38,0.00
2008,01,29,03,39,0.00
2008,01,29,03,40,0.00
2008,01,29,03,41,0.00
2008,01,29,03,42,0.00
2008,01,29,03,43,0.00
2008,01,29,03,44,0.00
2008,01,29,03,45,0.00
2008,01,29,03,46,0.00
2008,01,29,03,47,0.00
2008,01,29,03,48,0.00
2008,01,29,03,49,0.00
2008,01,29,03,50,0.00
2008,01,29,03,51,0.00
2008,01,29,03,52,0.00
2008,01,29,03,53,0.00
2008,01,29,03,54,0.00
2008,01,29,03,55,0.00
2008,01,29,03,56,0.00
2008,01,29,03,57,0.00
2008,01,29,03,58,0.00
2008,01,29,03,59,0.00
2008,01,29,04,00,0.00
2008,01,29,04,01,0.00
2008,01,29,04,02,0.00
2008,01,29,04,03,0.00
2008,01,29,04,04,0.00
2008,01,29,04,05,0.00
2008,01,29,04,06,0.00
2008,01,29,04,07,0.00
2008,01,29,04,08,0.00
2008,01,29,04,09,0.00
2008,01,29,04,10,0.00
2008,01,29,04,11,0.00
2008,01,29,04,12,0.00
2008,01,29,04,13,0.00
2008,01,29,04,14,0.00
2008,01,29,04,15,0.00
2008,01,29,04,16,0.00
2008,01,29,04,17,0.00
2008,01,29,04,18,0.00
2008,01,29,04,19,0.00
2008,01,29,04,20,0.00
2008,01,29,04,21,0.00
2008,01,29,04,22,0.00
2008,01,29,04,23,0.00
2008,01,29,04,24,0.00
2008,01,29,04,25,0.00
2008,01,29,04,26,0.00
2008,01,29,04,27,0.00
2008,01,29,04,28,0.00
2008,01,29,04,29,0.00
2008,01,29,04,30,0.00
2008,01,29,04,31,0.00
2008,01,29,04,32,0.00
2008,01,29,04,33,0.00
2008,01,29,04,34,0.00
2008,01,29,04,35,0.00
2008,01,29,04,36,0.00
2008,01,29,04,37,0.00
2008,01,29,04,38,0.00
2008,01,29,04,39,0.00
2008,01,29,04,40,0.00
2008,01,29,04,41,0.00
2008,01,29,04,42,0.00
2008,01,29,04,43,0.00
2008,01,29,04,44,0.00
2008,01,29,04,45,0.00
2008,01,29,04,46,0.00
2008,01,29,04,47,0.00
2008,01,29,04,48,0.00
2008,01,29,04,49,0.00
2008,01,29,04,50,0.00
2008,01,29,04,51,0.00
2008,01,29,04,52,0.00
2008,01,29,04,53,0.00
2008,01,29,04,54,0.00
2008,01,29,04,55,0.00
2008,01,29,04,56,0.00
2008,01,29,04,57,0.00
2008,01,29,04,58,0.00
2008,01,29,04,59,0.00
2008,01,29,05,00,0.00
2008,01,29,05,01,0.00
2008,01,29,05,02,0.00
2008,01,29,05,03,0.00
2008,01,29,05,04,0.00
2008,01,29,05,05,0.00
2008,01,29,05,06,0.00
2008,01,29,05,07,0.00
2008,01,29,05,08,0.00
2008,01,29,05,09,0.00
2008,01,29,05,10,0.00
2008,01,29,05,11,0.00
2008,01,29,05,12,0.00
2008,01,29,05,13,0.00
2008,01,29,05,14,0.00
2008,01,29,05,15,0.00
2008,01,29,05,16,0.00
2008,01,29,05,17,0.00
2008,01,29,05,18,0.00
2008,01,29,05,19,0.00
2008,01,29,05,20,0.00
2008,01,29,05,21,0.00
2008,01,29,05,22,0.00
2008,01,29,05,23,0.00
2008,01,29,05,24,0.00
2008,01,29,05,25,0.00
2008,01,29,05,26,0.00
2008,01,29,05,27,0.00
2008,01,29,05,28,0.00
2008,01,29,05,29,0.00
2008,01,29,05,30,0.00
2008,01,29,05,31,0.00
2008,01,29,05,32,0.00
2008,01,29,05,33,0.00
2008,01,29,05,34,0.00
2008,01,29,05,35,0.00
2008,01,29,05,36,0.00
2008,01,29,05,37,0.00
2008,01,29,05,38,0.00
2008,01,29,05,39,0.00
2008,01,29,05,40,0.00
2008,01,29,05,41,0.00
2008,01,29,05,42,0.00
2008,01,29,05,43,0.00
2008,01,29,05,44,0.00
2008,01,29,05,45,0.00
2008,01,29,05,46,0.00
2008,01,29,05,47,0.00
2008,01,29,05,48,0.00
2008,01,29,05,49,0.00
2008,01,29,05,50,0.00
2008,01,29,05,51,0.00
2008,01,29,05,52,0.00
2008,01,29,05,53,0.00
2008,01,29,05,54,0.00
2008,01,29,05,55,0.00
2008,01,29,05,56,0.00
2008,01,29,05,57,0.00
2008,01,29,05,58,0.00
2008,01,29,05,59,0.00
2008,01,29,06,00,0.00
2008,01,29,06,01,0.00
2008,01,29,06,02,0.00
2008,01,29,06,03,0.00
2008,01,29,06,04,0.00
2008,01,29,06,05,0.00
2008,01,29,06,06,0.00
2008,01,29,06,07,0.00
2008,01,29,06,08,0.00
2008,01,29,06,09,0.00
2008,01,29,06,10,0.00
2008,01,29,06,11,0.00
2008,01,29,06,12,0.00
2008,01,29,06,13,0.00
2008,01,29,06,14,0.00
2008,01,29,06,15,0.00
2008,01,29,06,16,0.00
2008,01,29,06,17,0.00
2008,01,29,06,18,0.00
2008,01,29,06,19,0.00
2008,01,29,06,20,0.00
2008,01,29,06,21,0.00
2008,01,29,06,22,0.00
2008,01,29,06,23,0.00
2008,01,29,06,24,0.00
2008,01,29,06,25,0.00
2008,01,29,06,26,0.00
2008,01,29,06,27,0.00
2008,01,29,06,28,0.00
2008,01,29,06,29,0.00
2008,01,29,06,30,0.00
2008,01,29,06,31,0.00
2008,01,29,06,32,0.00
2008,01,29,06,33,0.00
2008,01,29,06,34,0.00
2008,01,29,06,35,0.00
2008,01,29,06,36,0.00
2008,01,29,06,37,0.00
2008,01,29,06,38,0.00
2008,01,29,06,39,0.00
2008,01,29,06,40,0.00
2008,01,29,06,41,0.00
2008,01,29,06,42,0.00
2008,01,29,06,43,0.00
2008,01,29,06,44,0.00
2008,01,29,06,45,0.00
2008,01,29,06,46,0.00
2008,01,29,06,47,0.00
2008,01,29,06,48,0.00
2008,01,29,06,49,0.00
2008,01,29,06,50,0.00
2008,01,29,06,51,0.00
2008,01,29,06,52,0.00
2008,01,29,06,53,0.00
2008,01,29,06,54,0.00
2008,01,29,06,55,0.00
2008,01,29,06,56,0.00
2008,01,29,06,57,0.00
2008,01,29,06,58,0.00
2008,01,29,06,59,0.00
2008,01,29,07,00,0.00
2008,01,29,07,01,0.00
2008,01,29,07,02,0.00
2008,01,29,07,03,0.00
2008,01,29,07,04,0.00
2008,01,29,07,05,0.00
2008,01,29,07,06,0.00
2008,01,29,07,07,0.00
2008,01,29,07,08,0.00
2008,01,29,07,09,0.00
2008,01,29,07,10,0.00
2008,01,29,07,11,0.00
2008,01,29,07,12,0.00
2008,01,29,07,13,0.00
2008,01,29,07,14,0.00
2008,01,29,07,15,0.00
2008,01,29,07,16,0.00
2008,01,29,07,17,0.00
2008,01,29,07,18,0.00
2008,01,29,07,19,0.00
2008,01,29,07,20,0.00
2008,01,29,07,21,0.00
2008,01,29,07,22,0.00
2008,01,29,07,23,0.00
2008,01,29,07,24,0.00
2008,01,29,07,25,0.00
2008,01,29,07,26,0.00
2008,01,29,07,27,0.00
2008,01,29,07,28,0.00
2008,01,29,07,29,0.00
2008,01,29,07,30,0.00
2008,01,29,07,31,0.00
2008,01,29,07,32,0.00
2008,01,29,07,33,0.00
2008,01,29,07,34,0.00
2008,01,29,07,35,0.00
2008,01,29,07,36,0.00
2008,01,29,07,37,0.00
2008,01,29,07,38,0.00
2008,01,29,07,39,0.00
2008,01,29,07,40,0.00
2008,01,29,07,41,0.00
2008,01,29,07,42,0.00
2008,01,29,07,43,0.00
2008,01,29,07,44,0.00
2008,01,29,07,45,0.00
2008,01,29,07,46,0.00
2008,01,29,07,47,0.00
2008,01,29,07,48,0.00
2008,01,29,07,49,0.00
2008,01,29,07,50,0.00
2008,01,29,07,51,0.00
2008,01,29,07,52,0.00
2008,01,29,07,53,0.00
2008,01,29,07,54,0.00
2008,01,29,07,55,0.00
2008,01,29,07,56,0.00
2008,01,29,07,57,1.80
2008,01,29,07,58,5.00
2008,01,29,07,59,5.00
2008,01,29,08,00,5.00
2008,01,29,08,01,7.00
2008,01,29,08,02,7.00
2008,01,29,08,03,7.00
2008,01,29,08,04,7.00
2008,01,29,08,05,8.40
2008,01,29,08,06,9.00
2008,01,29,08,07,9.10
2008,01,29,08,08,11.00
2008,01,29,08,09,11.00
2008,01,29,08,10,11.60
2008,01,29,08,11,12.00
2008,01,29,08,12,12.00
2008,01,29,08,13,14.00
2008,01,29,08,14,14.50
2008,01,29,08,15,16.70
2008,01,29,08,16,18.60
2008,01,29,08,17,19.00
2008,01,29,08,18,20.90
2008,01,29,08,19,21.00
2008,01,29,08,20,21.00
2008,01,29,08,21,21.80
2008,01,29,08,22,24.30
2008,01,29,08,23,25.80
2008,01,29,08,24,29.20
2008,01,29,08,25,32.30
2008,01,29,08,26,36.10
2008,01,29,08,27,44.30
2008,01,29,08,28,44.10
2008,01,29,08,29,40.00
2008,01,29,08,30,40.00
2008,01,29,08,31,42.80
2008,01,29,08,32,49.10
2008,01,29,08,33,54.90
2008,01,29,08,34,52.80
2008,01,29,08,35,47.70
2008,01,29,08,36,47.00
2008,01,29,08,37,46.50
2008,01,29,08,38,42.60
2008,01,29,08,39,39.40
2008,01,29,08,40,37.70
2008,01,29,08,41,35.20
2008,01,29,08,42,33.00
2008,01,29,08,43,31.70
2008,01,29,08,44,29.30
2008,01,29,08,45,27.10
2008,01,29,08,46,26.00
2008,01,29,08,47,26.00
2008,01,29,08,48,27.70
2008,01,29,08,49,28.00
2008,01,29,08,50,28.00
2008,01,29,08,51,28.00
2008,01,29,08,52,26.50
2008,01,29,08,53,27.50
2008,01,29,08,54,29.70
2008,01,29,08,55,28.00
2008,01,29,08,56,28.00
2008,01,29,08,57,28.00
2008,01,29,08,58,26.40
2008,01,29,08,59,25.10
2008,01,29,09,00,23.00
2008,01,29,09,01,21.00
2008,01,29,09,02,21.00
2008,01,29,09,03,23.70
2008,01,29,09,04,25.70
2008,01,29,09,05,27.90
2008,01,29,09,06,26.00
2008,01,29,09,07,26.00
2008,01,29,09,08,27.80
2008,01,29,09,09,32.00
2008,01,29,09,10,31.00
2008,01,29,09,11,25.00
2008,01,29,09,12,21.00
2008,01,29,09,13,21.00
2008,01,29,09,14,20.30
2008,01,29,09,15,19.00
2008,01,29,09,16,20.70
2008,01,29,09,17,23.00
2008,01,29,09,18,18.80
2008,01,29,09,19,18.00
2008,01,29,09,20,19.50
2008,01,29,09,21,28.50
2008,01,29,09,22,32.70
2008,01,29,09,23,33.00
2008,01,29,09,24,35.30
2008,01,29,09,25,38.10
2008,01,29,09,26,43.50
2008,01,29,09,27,49.60
2008,01,29,09,28,56.20
2008,01,29,09,29,63.20
2008,01,29,09,30,67.40
2008,01,29,09,31,69.40
2008,01,29,09,32,70.00
2008,01,29,09,33,72.90
2008,01,29,09,34,75.80
2008,01,29,09,35,76.00
2008,01,29,09,36,80.00
2008,01,29,09,37,105.70
2008,01,29,09,38,131.00
2008,01,29,09,39,142.00
2008,01,29,09,40,134.40
2008,01,29,09,41,122.20
2008,01,29,09,42,151.20
2008,01,29,09,43,137.10
2008,01,29,09,44,144.00
2008,01,29,09,45,151.50
2008,01,29,09,46,172.60
2008,01,29,09,47,207.60
2008,01,29,09,48,213.20
2008,01,29,09,49,210.70
2008,01,29,09,50,216.10
2008,01,29,09,51,205.00
2008,01,29,09,52,213.50
2008,01,29,09,53,238.70
2008,01,29,09,54,256.50
2008,01,29,09,55,265.20
2008,01,29,09,56,269.40
2008,01,29,09,57,271.90
2008,01,29,09,58,274.00
2008,01,29,09,59,275.70
2008,01,29,10,00,277.70
2008,01,29,10,01,281.30
2008,01,29,10,02,278.00
2008,01,29,10,03,274.60
2008,01,29,10,04,271.00
2008,01,29,10,05,273.50
2008,01,29,10,06,271.00
2008,01,29,10,07,271.00
2008,01,29,10,08,267.50
2008,01,29,10,09,265.00
2008,01,29,10,10,266.60
2008,01,29,10,11,264.70
2008,01,29,10,12,265.20
2008,01,29,10,13,260.80
2008,01,29,10,14,263.00
2008,01,29,10,15,264.90
2008,01,29,10,16,269.00
2008,01,29,10,17,270.00
2008,01,29,10,18,276.10
2008,01,29,10,19,282.70
2008,01,29,10,20,291.10
2008,01,29,10,21,327.30
2008,01,29,10,22,339.00
2008,01,29,10,23,366.00
2008,01,29,10,24,366.00
2008,01,29,10,25,150.60
2008,01,29,10,26,23.70
2008,01,29,10,27,34.40
2008,01,29,10,28,47.30
2008,01,29,10,29,70.00
2008,01,29,10,30,81.40
2008,01,29,10,31,76.40
2008,01,29,10,32,65.30
2008,01,29,10,33,55.40
2008,01,29,10,34,54.20
2008,01,29,10,35,60.10
2008,01,29,10,36,81.20
2008,01,29,10,37,106.90
2008,01,29,10,38,135.80
2008,01,29,10,39,209.00
2008,01,29,10,40,237.90
2008,01,29,10,41,400.00
2008,01,29,10,42,407.80
2008,01,29,10,43,392.20
2008,01,29,10,44,383.00
2008,01,29,10,45,380.00
2008,01,29,10,46,357.00
2008,01,29,10,47,348.50
2008,01,29,10,48,342.30
2008,01,29,10,49,333.70
2008,01,29,10,50,329.30
2008,01,29,10,51,330.10
2008,01,29,10,52,334.90
2008,01,29,10,53,346.00
2008,01,29,10,54,346.00
2008,01,29,10,55,357.50
2008,01,29,10,56,367.80
2008,01,29,10,57,378.00
2008,01,29,10,58,310.80
2008,01,29,10,59,124.20
2008,01,29,11,00,181.40
2008,01,29,11,01,220.00
2008,01,29,11,02,220.00
2008,01,29,11,03,220.00
2008,01,29,11,04,262.10
2008,01,29,11,05,380.00
2008,01,29,11,06,372.20
2008,01,29,11,07,377.10
2008,01,29,11,08,404.50
2008,01,29,11,09,446.10
2008,01,29,11,10,448.00
2008,01,29,11,11,424.80
2008,01,29,11,12,361.70
2008,01,29,11,13,317.40
2008,01,29,11,14,250.00
2008,01,29,11,15,244.20
2008,01,29,11,16,203.40
2008,01,29,11,17,196.20
2008,01,29,11,18,173.20
2008,01,29,11,19,165.10
2008,01,29,11,20,123.00
2008,01,29,11,21,109.60
2008,01,29,11,22,106.20
2008,01,29,11,23,125.50
2008,01,29,11,24,146.30
2008,01,29,11,25,151.20
2008,01,29,11,26,133.70
2008,01,29,11,27,130.80
2008,01,29,11,28,144.00
2008,01,29,11,29,206.60
2008,01,29,11,30,252.00
2008,01,29,11,31,212.50
2008,01,29,11,32,229.90
2008,01,29,11,33,246.30
2008,01,29,11,34,311.00
2008,01,29,11,35,262.10
2008,01,29,11,36,203.50
2008,01,29,11,37,148.80
2008,01,29,11,38,95.60
2008,01,29,11,39,69.90
2008,01,29,11,40,60.20
2008,01,29,11,41,55.10
2008,01,29,11,42,53.60
2008,01,29,11,43,51.20
2008,01,29,11,44,52.80
2008,01,29,11,45,54.40
2008,01,29,11,46,56.10
2008,01,29,11,47,53.00
2008,01,29,11,48,51.40
2008,01,29,11,49,55.70
2008,01,29,11,50,76.10
2008,01,29,11,51,78.80
2008,01,29,11,52,103.30
2008,01,29,11,53,161.70
2008,01,29,11,54,195.00
2008,01,29,11,55,195.00
2008,01,29,11,56,186.60
2008,01,29,11,57,137.50
2008,01,29,11,58,136.10
2008,01,29,11,59,139.00
2008,01,29,12,00,301.50
2008,01,29,12,01,334.00
2008,01,29,12,02,341.30
2008,01,29,12,03,380.00
2008,01,29,12,04,270.00
2008,01,29,12,05,160.00
2008,01,29,12,06,160.00
2008,01,29,12,07,160.00
2008,01,29,12,08,233.90
2008,01,29,12,09,585.00
2008,01,29,12,10,389.80
2008,01,29,12,11,230.00
2008,01,29,12,12,342.50
2008,01,29,12,13,373.50
2008,01,29,12,14,420.00
2008,01,29,12,15,366.00
2008,01,29,12,16,258.00
2008,01,29,12,17,462.80
2008,01,29,12,18,605.00
2008,01,29,12,19,606.00
2008,01,29,12,20,606.00
2008,01,29,12,21,606.00
2008,01,29,12,22,418.40
2008,01,29,12,23,355.90
2008,01,29,12,24,415.50
2008,01,29,12,25,442.50
2008,01,29,12,26,357.00
2008,01,29,12,27,357.00
2008,01,29,12,28,357.00
2008,01,29,12,29,357.00
2008,01,29,12,30,357.00
2008,01,29,12,31,332.60
2008,01,29,12,32,292.30
2008,01,29,12,33,215.40
2008,01,29,12,34,120.20
2008,01,29,12,35,52.00
2008,01,29,12,36,32.80
2008,01,29,12,37,25.50
2008,01,29,12,38,23.00
2008,01,29,12,39,25.90
2008,01,29,12,40,33.60
2008,01,29,12,41,38.40
2008,01,29,12,42,47.30
2008,01,29,12,43,71.40
2008,01,29,12,44,80.30
2008,01,29,12,45,83.00
2008,01,29,12,46,76.80
2008,01,29,12,47,69.20
2008,01,29,12,48,58.00
2008,01,29,12,49,52.70
2008,01,29,12,50,49.40
2008,01,29,12,51,46.50
2008,01,29,12,52,44.60
2008,01,29,12,53,45.80
2008,01,29,12,54,49.00
2008,01,29,12,55,48.60
2008,01,29,12,56,46.00
2008,01,29,12,57,38.80
2008,01,29,12,58,31.30
2008,01,29,12,59,24.50
2008,01,29,13,00,18.90
2008,01,29,13,01,18.00
2008,01,29,13,02,18.00
2008,01,29,13,03,22.10
2008,01,29,13,04,25.80
2008,01,29,13,05,29.80
2008,01,29,13,06,35.90
2008,01,29,13,07,47.20
2008,01,29,13,08,57.40
2008,01,29,13,09,60.00
2008,01,29,13,10,70.70
2008,01,29,13,11,80.80
2008,01,29,13,12,94.90
2008,01,29,13,13,151.70
2008,01,29,13,14,217.50
2008,01,29,13,15,313.00
2008,01,29,13,16,382.00
2008,01,29,13,17,399.00
2008,01,29,13,18,134.60
2008,01,29,13,19,139.40
2008,01,29,13,20,156.50
2008,01,29,13,21,154.20
2008,01,29,13,22,134.00
2008,01,29,13,23,116.00
2008,01,29,13,24,114.60
2008,01,29,13,25,116.90
2008,01,29,13,26,140.70
2008,01,29,13,27,130.20
2008,01,29,13,28,108.70
2008,01,29,13,29,83.00
2008,01,29,13,30,68.60
2008,01,29,13,31,70.30
2008,01,29,13,32,81.80
2008,01,29,13,33,85.20
2008,01,29,13,34,83.00
2008,01,29,13,35,80.70
2008,01,29,13,36,114.20
2008,01,29,13,37,149.50
2008,01,29,13,38,177.00
2008,01,29,13,39,190.00
2008,01,29,13,40,190.00
2008,01,29,13,41,151.80
2008,01,29,13,42,132.00
2008,01,29,13,43,131.20
2008,01,29,13,44,138.60
2008,01,29,13,45,149.50
2008,01,29,13,46,151.00
2008,01,29,13,47,131.60
2008,01,29,13,48,105.80
2008,01,29,13,49,98.30
2008,01,29,13,50,106.90
2008,01,29,13,51,133.10
2008,01,29,13,52,190.30
2008,01,29,13,53,232.30
2008,01,29,13,54,240.50
2008,01,29,13,55,195.20
2008,01,29,13,56,162.70
2008,01,29,13,57,157.00
2008,01,29,13,58,244.00
2008,01,29,13,59,244.00
2008,01,29,14,00,244.00
2008,01,29,14,01,244.00
2008,01,29,14,02,210.70
2008,01,29,14,03,185.80
2008,01,29,14,04,183.60
2008,01,29,14,05,164.60
2008,01,29,14,06,137.70
2008,01,29,14,07,117.50
2008,01,29,14,08,95.10
2008,01,29,14,09,82.30
2008,01,29,14,10,81.00
2008,01,29,14,11,67.30
2008,01,29,14,12,53.60
2008,01,29,14,13,53.50
2008,01,29,14,14,55.50
2008,01,29,14,15,49.70
2008,01,29,14,16,36.90
2008,01,29,14,17,34.60
2008,01,29,14,18,35.30
2008,01,29,14,19,43.40
2008,01,29,14,20,56.90
2008,01,29,14,21,83.00
2008,01,29,14,22,155.70
2008,01,29,14,23,195.00
2008,01,29,14,24,294.00
2008,01,29,14,25,347.40
2008,01,29,14,26,368.00
2008,01,29,14,27,327.30
2008,01,29,14,28,337.00
2008,01,29,14,29,264.00
2008,01,29,14,30,213.10
2008,01,29,14,31,122.80
2008,01,29,14,32,104.80
2008,01,29,14,33,95.50
2008,01,29,14,34,98.60
2008,01,29,14,35,101.60
2008,01,29,14,36,92.10
2008,01,29,14,37,86.60
2008,01,29,14,38,76.00
2008,01,29,14,39,77.00
2008,01,29,14,40,76.50
2008,01,29,14,41,72.60
2008,01,29,14,42,73.20
2008,01,29,14,43,73.30
2008,01,29,14,44,76.10
2008,01,29,14,45,77.00
2008,01,29,14,46,80.60
2008,01,29,14,47,79.00
2008,01,29,14,48,77.40
2008,01,29,14,49,70.90
2008,01,29,14,50,64.20
2008,01,29,14,51,62.00
2008,01,29,14,52,69.00
2008,01,29,14,53,67.60
2008,01,29,14,54,63.30
2008,01,29,14,55,60.60
2008,01,29,14,56,60.00
2008,01,29,14,57,58.30
2008,01,29,14,58,62.80
2008,01,29,14,59,60.60
2008,01,29,15,00,60.20
2008,01,29,15,01,67.10
2008,01,29,15,02,69.00
2008,01,29,15,03,74.40
2008,01,29,15,04,82.60
2008,01,29,15,05,91.70
2008,01,29,15,06,100.00
2008,01,29,15,07,126.10
2008,01,29,15,08,154.80
2008,01,29,15,09,175.20
2008,01,29,15,10,193.50
2008,01,29,15,11,223.80
2008,01,29,15,12,249.70
2008,01,29,15,13,269.80
2008,01,29,15,14,258.80
2008,01,29,15,15,279.90
2008,01,29,15,16,281.00
2008,01,29,15,17,237.90
2008,01,29,15,18,227.70
2008,01,29,15,19,210.10
2008,01,29,15,20,167.70
2008,01,29,15,21,139.80
2008,01,29,15,22,128.60
2008,01,29,15,23,118.70
2008,01,29,15,24,104.10
2008,01,29,15,25,101.70
2008,01,29,15,26,113.00
2008,01,29,15,27,133.00
2008,01,29,15,28,150.30
2008,01,29,15,29,135.60
2008,01,29,15,30,108.00
2008,01,29,15,31,85.40
2008,01,29,15,32,77.00
2008,01,29,15,33,73.70
2008,01,29,15,34,71.30
2008,01,29,15,35,69.50
2008,01,29,15,36,67.80
2008,01,29,15,37,65.20
2008,01,29,15,38,63.30
2008,01,29,15,39,63.00
2008,01,29,15,40,63.00
2008,01,29,15,41,63.00
2008,01,29,15,42,64.50
2008,01,29,15,43,65.00
2008,01,29,15,44,66.70
2008,01,29,15,45,64.20
2008,01,29,15,46,60.50
2008,01,29,15,47,55.60
2008,01,29,15,48,52.00
2008,01,29,15,49,51.00
2008,01,29,15,50,49.00
2008,01,29,15,51,49.00
2008,01,29,15,52,49.00
2008,01,29,15,53,51.50
2008,01,29,15,54,53.00
2008,01,29,15,55,49.70
2008,01,29,15,56,44.50
2008,01,29,15,57,48.50
2008,01,29,15,58,47.00
2008,01,29,15,59,45.10
2008,01,29,16,00,42.70
2008,01,29,16,01,44.00
2008,01,29,16,02,47.30
2008,01,29,16,03,56.80
2008,01,29,16,04,63.00
2008,01,29,16,05,62.30
2008,01,29,16,06,62.00
2008,01,29,16,07,62.00
2008,01,29,16,08,62.80
2008,01,29,16,09,67.60
2008,01,29,16,10,69.00
2008,01,29,16,11,67.60
2008,01,29,16,12,65.60
2008,01,29,16,13,60.00
2008,01,29,16,14,57.70
2008,01,29,16,15,55.30
2008,01,29,16,16,54.00
2008,01,29,16,17,53.30
2008,01,29,16,18,49.50
2008,01,29,16,19,47.10
2008,01,29,16,20,43.60
2008,01,29,16,21,42.00
2008,01,29,16,22,42.00
2008,01,29,16,23,37.70
2008,01,29,16,24,33.50
2008,01,29,16,25,31.90
2008,01,29,16,26,29.50
2008,01,29,16,27,27.20
2008,01,29,16,28,25.40
2008,01,29,16,29,25.00
2008,01,29,16,30,23.40
2008,01,29,16,31,23.00
2008,01,29,16,32,23.00
2008,01,29,16,33,23.00
2008,01,29,16,34,23.00
2008,01,29,16,35,23.00
2008,01,29,16,36,23.00
2008,01,29,16,37,23.00
2008,01,29,16,38,23.00
2008,01,29,16,39,21.10
2008,01,29,16,40,18.50
2008,01,29,16,41,18.20
2008,01,29,16,42,16.10
2008,01,29,16,43,13.80
2008,01,29,16,44,11.70
2008,01,29,16,45,10.00
2008,01,29,16,46,9.00
2008,01,29,16,47,9.00
2008,01,29,16,48,7.00
2008,01,29,16,49,7.00
2008,01,29,16,50,7.00
2008,01,29,16,51,7.00
2008,01,29,16,52,6.00
2008,01,29,16,53,5.00
2008,01,29,16,54,5.00
2008,01,29,16,55,5.00
2008,01,29,16,56,5.00
2008,01,29,16,57,2.20
2008,01,29,16,58,0.00
2008,01,29,16,59,0.00
2008,01,29,17,00,0.00
2008,01,29,17,01,0.00
2008,01,29,17,02,0.00
2008,01,29,17,03,0.00
2008,01,29,17,04,0.00
2008,01,29,17,05,0.00
2008,01,29,17,06,0.00
2008,01,29,17,07,0.00
2008,01,29,17,08,0.00
2008,01,29,17,09,0.00
2008,01,29,17,10,0.00
2008,01,29,17,11,0.00
2008,01,29,17,12,0.00
2008,01,29,17,13,0.00
2008,01,29,17,14,0.00
2008,01,29,17,15,0.00
2008,01,29,17,16,0.00
2008,01,29,17,17,0.00
2008,01,29,17,18,0.00
2008,01,29,17,19,0.00
2008,01,29,17,20,0.00
2008,01,29,17,21,0.00
2008,01,29,17,22,0.00
2008,01,29,17,23,0.00
2008,01,29,17,24,0.00
2008,01,29,17,25,0.00
2008,01,29,17,26,0.00
2008,01,29,17,27,0.00
2008,01,29,17,28,0.00
2008,01,29,17,29,0.00
2008,01,29,17,30,0.00
2008,01,29,17,31,0.00
2008,01,29,17,32,0.00